Wind_Speed
36 35 34 34 35 35 36 35 34 33 31 30 29 28 27 26 25 25 25 24 24 24 24 24 23 21 20 19 18 18 18 18 17 16 15 15 14 14 14 13 13 12
38 36 35 34 34 33 34 35 34 34 33 31 30 29 28 27 26 26 25 25 25 25 25 25 24 22 21 20 19 19 19 19 18 17 16 16 15 15 15 13 13 13
39 38 37 36 35 33 32 33 34 34 33 32 31 30 29 28 28 27 27 26 26 26 26 26 25 24 23 22 20 20 20 19 19 18 16 16 16 16 15 13 13 13
41 40 39 38 37 35 33 32 32 32 32 32 32 31 30 29 28 28 27 27 27 27 27 27 26 25 24 23 21 21 21 20 20 19 18 18 17 17 16 14 13 13
42 41 40 39 38 37 36 34 32 31 31 31 32 32 31 30 29 28 28 28 28 28 28 27 26 26 25 23 22 21 21 21 21 20 19 19 18 18 17 16 15 14
44 43 42 41 40 39 38 36 35 33 31 30 31 32 32 31 30 29 29 29 28 28 28 28 27 26 26 24 23 22 22 22 22 21 20 20 19 19 18 17 16 15
45 44 43 43 42 41 40 39 37 36 33 31 31 31 32 32 32 31 30 29 30 30 29 29 28 27 26 25 24 23 22 22 22 21 21 21 20 20 20 19 17 16
45 44 44 44 44 43 42 41 39 37 35 33 33 32 31 32 33 32 32 31 31 31 31 30 29 28 27 27 26 25 24 24 23 22 22 21 21 20 20 20 18 17
44 44 44 44 44 44 43 42 40 38 36 35 34 33 33 33 33 34 34 33 33 33 32 32 31 29 29 29 28 27 26 25 24 23 22 22 21 21 20 19 18 17
45 44 44 44 45 45 44 43 42 40 38 37 35 35 35 34 33 34 35 35 35 35 34 34 33 32 31 31 29 28 27 26 25 24 22 22 21 21 20 19 18 17
46 45 45 45 45 45 44 43 42 41 40 38 37 37 36 35 35 35 36 37 37 37 36 35 34 34 33 32 31 30 29 28 27 25 24 23 22 21 20 18 17 16
48 47 46 46 45 45 44 43 43 43 42 40 39 38 38 37 36 36 37 38 38 38 37 36 36 35 35 34 33 32 31 30 29 27 25 24 23 21 20 19 18 17
50 48 47 46 46 45 45 44 44 43 43 41 40 40 40 39 38 38 38 38 39 39 39 38 37 36 37 36 35 35 33 32 30 29 27 26 24 22 21 20 19 19
50 48 47 47 47 46 45 45 44 44 43 42 42 42 42 41 40 40 39 39 39 39 40 40 39 39 39 38 38 37 35 34 32 31 29 28 26 24 23 22 21 21
50 49 49 48 48 47 46 46 45 45 45 44 44 43 42 41 41 41 40 40 40 40 40 41 41 41 41 40 40 38 37 36 34 33 31 30 28 26 25 25 24 23
50 50 50 49 49 48 47 47 46 46 46 45 45 44 43 42 42 42 42 42 41 41 41 43 44 44 42 41 41 39 38 37 36 34 33 31 29 28 28 27 26 25
50 51 50 50 49 48 48 47 46 46 46 45 45 44 44 43 43 43 43 43 42 42 42 44 46 45 43 42 41 39 38 38 37 35 34 33 32 30 30 29 27 26
51 51 50 50 49 49 48 47 46 46 46 46 46 45 44 45 44 44 43 43 44 44 44 45 47 46 44 43 42 40 39 38 37 36 35 35 33 32 32 31 29 27
51 51 50 50 49 48 48 47 47 47 47 47 46 46 46 46 45 44 44 44 45 45 45 45 46 46 45 44 43 41 39 38 38 37 36 36 34 34 35 33 30 28
51 50 50 49 49 49 49 48 48 48 47 47 47 47 48 48 47 46 46 45 46 46 45 45 46 47 46 45 43 42 40 39 38 38 37 36 35 36 36 34 30 28
50 50 49 50 50 49 49 49 49 49 48 48 49 49 48 48 47 46 46 47 47 46 45 45 46 46 46 45 43 42 41 39 39 39 38 37 36 37 36 33 30 28
49 48 49 49 49 49 50 50 49 49 49 49 50 49 49 50 49 47 47 48 47 47 47 47 46 46 47 46 44 42 41 40 40 40 40 38 38 38 36 32 30 29
48 48 48 49 49 49 50 49 49 49 49 49 50 50 51 52 51 49 49 48 48 47 48 47 47 47 47 45 44 42 42 41 41 41 41 40 39 38 36 32 31 30
46 47 47 48 48 48 49 49 48 48 48 48 48 49 50 51 51 50 50 50 49 49 48 47 47 48 46 45 45 43 43 43 42 41 42 41 40 39 36 33 31 30
43 44 45 46 46 47 48 48 47 47 47 46 47 48 49 50 51 51 51 50 50 50 50 48 48 47 46 46 45 44 44 43 43 42 42 42 42 40 37 34 32 31
41 42 42 43 43 44 46 46 46 46 46 46 46 46 47 49 51 53 53 52 50 50 49 49 49 48 47 47 46 45 45 43 43 43 43 43 43 41 38 35 33 32
Wind_Direction
227 227 229 232 235 237 238 239 238 238 239 238 236 236 237 240 242 242 243 245 247 249 250 250 250 249 250 250 252 254 254 254 255 255 253 251 250 250 248 246 246 245
227 228 228 230 233 236 237 238 239 238 239 239 239 238 238 240 241 242 244 246 248 250 251 251 250 248 248 249 250 252 253 254 254 253 252 251 249 248 247 246 247 247
229 230 230 231 232 233 235 237 238 238 238 240 240 239 238 240 241 243 244 246 248 251 252 252 251 248 247 248 249 250 251 252 253 253 252 251 249 248 247 245 246 247
230 231 231 232 233 234 235 236 237 237 237 237 237 236 237 238 240 242 244 246 247 249 251 251 250 248 247 247 247 248 249 250 251 251 250 249 247 246 245 243 244 246
231 232 232 233 234 235 235 235 236 236 236 235 235 234 235 236 238 240 241 243 245 246 248 250 249 247 246 245 245 246 246 247 247 247 248 247 245 245 245 242 242 244
232 232 233 233 235 236 236 236 236 236 235 235 235 235 234 235 236 237 238 240 242 244 246 247 247 245 244 245 244 243 244 245 245 244 246 247 246 245 245 244 242 243
233 233 233 234 235 236 237 237 237 237 236 236 236 236 235 235 235 236 237 239 240 242 244 246 246 244 244 245 244 243 242 243 244 243 244 246 246 245 245 244 243 244
234 235 235 235 235 236 237 237 238 238 237 237 237 237 237 236 236 236 237 238 239 240 242 244 245 244 244 245 244 243 242 242 243 242 243 245 246 246 246 245 244 245
235 236 236 236 236 236 237 237 238 238 238 238 237 238 238 237 236 236 237 237 238 240 241 242 243 243 243 244 244 243 242 243 243 243 244 246 246 248 249 248 246 245
236 236 237 237 237 238 238 237 238 238 238 238 237 238 238 238 237 238 237 237 237 239 240 241 242 242 243 243 243 243 242 243 243 243 245 246 248 250 251 251 250 247
236 237 237 238 238 238 239 238 238 238 238 238 237 238 238 238 238 238 239 238 237 238 239 240 241 242 243 243 243 243 243 244 244 244 244 246 248 250 250 251 251 249
237 237 238 239 239 239 240 240 239 239 239 239 238 238 238 238 238 239 239 239 238 238 239 240 241 242 243 244 244 244 244 245 246 245 244 245 246 248 249 249 248 246
237 237 239 239 240 241 241 241 241 241 241 241 240 239 239 239 239 240 240 241 240 239 239 240 240 241 243 244 244 244 244 245 246 246 245 244 245 247 248 247 244 242
237 238 239 240 241 242 242 242 243 243 242 242 242 241 241 240 240 241 242 243 242 241 241 241 240 241 242 243 244 244 244 245 246 246 245 244 244 245 246 244 242 240
238 238 239 240 241 242 242 243 243 243 243 243 243 243 242 242 242 242 243 244 244 244 243 242 241 240 240 242 243 243 244 245 245 244 244 244 243 243 243 242 240 240
238 238 238 239 240 241 242 242 243 243 244 244 244 244 243 243 242 243 243 244 245 245 244 243 242 240 240 241 243 243 244 245 245 244 244 243 242 241 241 241 241 240
237 237 238 239 239 240 241 241 242 243 243 244 244 244 243 243 242 242 243 244 246 246 245 244 243 241 240 241 242 243 244 245 245 244 243 243 242 241 242 243 242 241
235 236 237 239 240 240 240 241 242 243 243 243 243 243 243 243 242 242 242 243 245 246 246 245 244 243 242 242 242 243 243 244 245 243 242 242 242 241 243 243 242 241
234 235 237 239 240 240 241 241 241 242 242 243 243 243 243 243 243 242 241 242 243 245 246 246 245 245 244 243 243 242 242 244 245 244 242 241 240 241 243 243 242 242
233 235 238 239 240 240 240 240 241 242 243 243 243 243 243 243 243 242 242 242 243 244 246 247 247 246 246 244 244 243 242 243 244 245 244 241 240 242 243 243 243 242
233 236 238 239 239 239 239 240 241 242 243 242 242 242 243 243 244 243 243 243 244 244 246 247 247 247 247 246 245 244 244 243 243 245 245 243 242 242 243 244 243 243
235 237 238 238 238 238 238 240 241 243 243 242 242 243 243 243 244 244 244 244 245 245 246 247 247 248 248 247 247 246 245 244 243 244 244 244 243 243 243 243 243 243
236 237 237 238 237 238 239 241 242 243 243 243 243 243 243 243 245 244 244 244 245 245 246 246 248 249 248 248 248 247 245 244 243 242 243 244 243 244 243 242 242 242
237 237 238 238 238 240 242 243 243 244 244 244 244 244 244 245 246 245 245 245 245 245 246 247 249 250 250 250 249 248 246 245 243 242 243 243 244 244 243 242 242 241
240 240 240 240 242 243 244 244 245 246 246 246 246 246 246 246 245 245 246 247 246 246 247 248 249 251 252 251 252 250 248 246 244 243 242 242 243 243 243 242 241 240
243 243 242 244 246 247 246 246 247 247 246 246 247 247 247 247 246 245 247 248 247 247 248 248 249 250 251 252 252 251 250 248 245 243 241 241 242 242 242 242 240 238
Height
1529 1531 1533 1535 1537 1539 1541 1543 1545 1547 1548 1550 1551 1553 1555 1556 1558 1559 1560 1561 1563 1564 1565 1566 1567 1568 1569 1570 1571 1572 1574 1575 1576 1577 1578 1579 1580 1582 1583 1583 1584 1584
1526 1528 1530 1532 1534 1536 1538 1539 1542 1543 1545 1547 1549 1550 1552 1554 1555 1556 1558 1559 1560 1561 1563 1564 1565 1566 1567 1568 1569 1570 1571 1573 1574 1576 1577 1578 1579 1580 1581 1582 1582 1583
1522 1524 1527 1528 1530 1533 1535 1536 1538 1540 1542 1544 1546 1547 1549 1551 1552 1554 1555 1556 1558 1559 1560 1561 1562 1563 1565 1565 1567 1568 1569 1571 1572 1574 1575 1576 1577 1578 1579 1580 1580 1581
1519 1521 1523 1525 1527 1530 1532 1534 1535 1537 1539 1540 1542 1544 1546 1548 1549 1551 1552 1554 1555 1556 1557 1558 1560 1561 1562 1563 1564 1565 1566 1568 1570 1571 1573 1574 1575 1576 1577 1578 1578 1579
1515 1517 1519 1522 1524 1526 1528 1530 1532 1534 1535 1537 1539 1541 1542 1544 1546 1547 1549 1550 1552 1553 1554 1555 1557 1558 1559 1560 1561 1562 1564 1565 1567 1569 1570 1571 1573 1574 1574 1575 1576 1577
1511 1513 1516 1518 1520 1522 1524 1526 1528 1530 1532 1534 1536 1537 1539 1541 1542 1544 1545 1547 1548 1550 1551 1552 1554 1555 1556 1557 1558 1559 1561 1562 1564 1566 1568 1569 1570 1571 1572 1573 1574 1575
1506 1509 1512 1514 1516 1518 1520 1522 1524 1526 1529 1531 1532 1534 1536 1537 1539 1540 1542 1544 1545 1546 1548 1549 1551 1552 1554 1555 1556 1557 1558 1560 1561 1563 1565 1566 1567 1568 1569 1571 1572 1573
1501 1504 1507 1510 1512 1514 1516 1518 1520 1522 1525 1527 1529 1530 1532 1534 1535 1537 1538 1540 1541 1543 1544 1546 1547 1549 1551 1551 1553 1554 1555 1557 1558 1560 1562 1563 1564 1565 1566 1568 1569 1571
1497 1499 1502 1505 1507 1509 1511 1514 1516 1519 1521 1523 1525 1527 1528 1530 1531 1533 1534 1536 1537 1539 1540 1542 1544 1546 1547 1548 1549 1551 1552 1554 1555 1557 1559 1560 1561 1562 1564 1566 1567 1569
1492 1494 1497 1499 1502 1504 1506 1510 1512 1515 1517 1519 1521 1523 1524 1525 1527 1528 1530 1531 1533 1534 1536 1538 1540 1542 1543 1544 1546 1548 1550 1551 1552 1554 1556 1557 1559 1560 1562 1563 1565 1566
1487 1489 1492 1494 1497 1499 1502 1505 1508 1510 1512 1514 1516 1518 1520 1521 1523 1524 1525 1526 1528 1530 1532 1534 1536 1538 1539 1541 1543 1545 1546 1548 1549 1551 1553 1554 1556 1557 1559 1561 1562 1563
1481 1484 1487 1489 1492 1494 1497 1500 1503 1505 1507 1509 1512 1514 1515 1517 1518 1519 1520 1522 1524 1526 1527 1529 1532 1534 1535 1537 1539 1541 1543 1545 1546 1548 1550 1551 1553 1554 1556 1557 1558 1559
1476 1479 1481 1484 1487 1490 1493 1496 1498 1501 1502 1504 1507 1509 1510 1512 1513 1515 1516 1518 1520 1521 1523 1525 1527 1529 1531 1533 1535 1537 1539 1541 1543 1545 1546 1548 1549 1551 1552 1553 1554 1554
1471 1474 1477 1480 1482 1485 1488 1491 1493 1495 1497 1500 1502 1503 1505 1507 1509 1511 1512 1514 1515 1517 1519 1521 1522 1524 1526 1528 1530 1533 1535 1537 1539 1541 1543 1544 1546 1547 1548 1549 1549 1549
1466 1469 1472 1475 1477 1480 1483 1485 1488 1490 1492 1494 1496 1498 1501 1503 1505 1507 1508 1509 1511 1513 1514 1515 1517 1519 1520 1522 1525 1528 1531 1533 1535 1537 1539 1540 1542 1543 1544 1544 1544 1545
1461 1464 1467 1470 1472 1475 1477 1480 1483 1485 1487 1489 1491 1493 1496 1498 1500 1502 1503 1504 1506 1508 1509 1510 1511 1512 1515 1518 1521 1524 1527 1529 1531 1533 1535 1536 1538 1539 1539 1539 1540 1541
1457 1459 1462 1464 1467 1470 1472 1475 1478 1480 1482 1484 1486 1488 1491 1493 1495 1496 1498 1500 1501 1503 1504 1505 1505 1507 1510 1514 1516 1519 1522 1524 1526 1529 1531 1532 1533 1534 1534 1535 1536 1537
1452 1454 1457 1459 1462 1464 1467 1470 1473 1475 1476 1478 1481 1483 1485 1487 1490 1492 1493 1495 1496 1497 1499 1499 1500 1502 1506 1509 1511 1515 1518 1519 1522 1524 1526 1527 1528 1529 1529 1530 1532 1533
1447 1450 1452 1454 1456 1459 1462 1465 1468 1469 1471 1473 1475 1478 1480 1482 1484 1486 1488 1490 1491 1492 1493 1495 1496 1498 1501 1504 1507 1510 1513 1515 1517 1519 1521 1522 1523 1524 1524 1525 1527 1530
1443 1445 1447 1450 1452 1455 1458 1460 1462 1464 1466 1469 1471 1473 1475 1476 1478 1481 1482 1484 1485 1487 1489 1490 1491 1493 1496 1499 1502 1505 1508 1511 1513 1514 1515 1517 1519 1519 1519 1521 1524 1525
1438 1440 1443 1445 1448 1451 1453 1455 1457 1459 1462 1464 1466 1467 1469 1471 1473 1475 1476 1478 1480 1482 1484 1484 1485 1488 1490 1493 1497 1500 1503 1506 1508 1509 1510 1512 1513 1514 1515 1517 1519 1521
1433 1436 1438 1441 1444 1446 1448 1450 1452 1454 1456 1459 1461 1463 1464 1466 1468 1469 1471 1473 1475 1477 1478 1478 1480 1482 1484 1487 1491 1494 1497 1500 1502 1503 1504 1506 1508 1509 1510 1513 1515 1516
1430 1432 1434 1437 1440 1441 1443 1445 1447 1449 1452 1454 1456 1458 1459 1461 1462 1463 1466 1468 1470 1471 1471 1472 1475 1477 1479 1481 1485 1488 1491 1494 1496 1498 1499 1501 1503 1504 1506 1509 1510 1511
1427 1429 1432 1435 1436 1437 1439 1441 1443 1445 1447 1449 1451 1453 1454 1456 1457 1459 1461 1463 1464 1465 1466 1468 1470 1472 1474 1476 1479 1482 1485 1487 1490 1492 1494 1496 1498 1499 1501 1504 1505 1506
1423 1425 1428 1430 1432 1433 1435 1436 1438 1440 1442 1444 1446 1447 1449 1451 1453 1455 1456 1457 1458 1460 1461 1463 1465 1466 1468 1471 1473 1476 1479 1482 1485 1487 1489 1491 1492 1494 1496 1498 1500 1501
1419 1421 1423 1425 1426 1428 1430 1432 1434 1436 1438 1439 1440 1442 1444 1446 1448 1450 1450 1452 1454 1455 1456 1458 1459 1461 1462 1464 1467 1470 1473 1476 1479 1480 1483 1485 1487 1488 1490 1492 1494 1495